Temperature
19 19 19 18 18 18 18 18 17 17 17 16 16 16 15 15 15 15 14 14 14 14 14 14 14 14 14 14 14 14 14 14 14 14 15 15 15 15 15 15 15 15 15
18 18 18 18 19 18 18 18 17 17 17 16 16 16 15 15 15 15 14 14 14 14 14 14 14 14 14 14 14 14 14 14 14 14 14 14 15 15 15 15 15 15 15
19 19 19 19 19 18 18 18 18 17 17 16 16 16 15 15 15 15 14 14 14 14 14 14 14 14 14 14 14 14 14 14 14 14 14 14 14 14 14 14 14 14 15
19 19 19 19 19 18 18 18 18 17 17 16 16 16 16 15 15 15 15 14 14 14 14 14 14 14 14 14 14 14 14 14 14 14 14 14 14 14 14 14 14 14 14
19 19 19 19 19 18 18 18 18 17 17 17 16 16 16 15 15 15 15 14 14 14 14 14 14 14 14 14 14 14 14 14 14 14 14 14 14 14 14 14 14 14 14
19 19 19 19 19 18 18 18 18 17 17 17 16 16 16 16 15 15 15 15 14 14 14 14 14 14 14 14 14 14 14 14 14 14 14 14 14 14 14 14 14 14 14
19 19 19 19 18 18 18 18 17 17 17 17 16 16 16 15 15 15 15 15 14 14 14 14 14 14 14 14 14 14 14 14 14 14 14 14 14 14 14 14 13 13 14
19 19 19 19 18 18 18 18 17 17 17 17 16 16 16 15 15 15 15 15 14 14 14 14 14 14 14 14 14 14 14 14 14 14 14 14 14 14 14 13 13 13 13
18 19 19 19 18 18 18 18 17 17 17 17 16 16 16 16 15 15 15 15 15 14 14 14 14 14 14 14 14 14 14 14 14 14 14 14 14 14 14 14 13 13 13
18 18 19 18 18 18 18 17 17 17 17 16 16 16 16 16 15 15 15 15 15 14 14 14 14 14 14 14 14 14 14 14 14 14 14 14 14 14 14 14 13 13 13
18 18 18 18 18 18 18 17 17 17 17 16 16 16 16 15 15 15 15 15 15 14 14 14 14 14 14 14 14 14 14 14 14 14 14 14 14 14 13 13 13 13 13
18 18 18 18 18 18 17 17 17 17 17 16 16 16 16 15 15 15 15 15 14 14 14 14 14 14 14 14 14 14 14 14 14 14 14 14 13 14 13 13 13 13 13
18 18 18 18 18 18 17 17 17 16 16 16 16 16 16 15 15 15 15 15 14 14 14 14 14 14 14 14 14 13 13 13 13 13 13 13 13 13 13 13 13 13 13
18 18 18 18 17 17 17 17 16 16 16 16 16 16 15 15 15 15 15 14 14 14 14 14 14 14 13 13 13 13 13 13 13 13 13 13 13 13 13 13 13 13 13
18 18 18 17 17 17 17 17 16 16 16 16 16 15 15 15 15 14 14 14 14 14 14 14 13 13 13 13 13 13 13 13 13 13 13 13 13 13 13 13 13 13 13
18 18 17 17 17 17 17 17 16 16 16 16 15 15 15 15 14 14 14 14 14 14 13 13 13 13 13 13 13 13 13 13 13 13 13 13 13 13 13 13 13 13 13
18 18 17 17 17 17 16 16 16 16 15 15 15 15 15 14 14 14 14 14 14 13 13 13 13 13 13 13 13 13 12 12 12 12 13 13 13 12 12 12 12 12 12
18 17 17 17 17 16 16 16 16 15 15 15 15 14 14 14 14 14 14 13 13 13 13 13 13 13 12 12 12 12 12 12 12 12 12 12 12 12 12 12 12 12 12
18 17 17 17 16 16 16 16 15 15 15 15 14 14 14 14 14 13 13 13 13 13 12 12 12 12 12 12 12 12 12 12 12 12 12 12 12 12 11 11 12 12 12
17 17 17 16 16 16 15 15 15 15 14 14 14 14 13 13 13 13 13 12 12 12 12 12 12 12 12 12 11 11 11 11 11 11 11 11 11 11 11 11 11 11 11
17 17 16 16 16 15 15 15 15 14 14 14 13 13 13 13 13 12 12 12 12 12 12 11 11 11 11 11 11 11 11 11 11 11 11 11 11 11 11 10 11 11 10
16 16 16 16 15 15 15 14 14 14 13 13 13 13 12 12 12 12 12 11 11 11 11 11 11 11 11 11 11 11 10 10 10 10 10 10 10 10 10 10 10 10 10
16 16 15 15 14 14 14 14 13 13 13 13 12 12 12 12 12 11 11 11 11 11 11 10 10 10 10 10 10 10 10 10 10 10 10 10 10 10 10 10 10 10 10
15 15 15 14 14 14 13 13 13 12 12 12 12 12 11 11 11 11 11 10 10 10 10 10 10 10 10 10 10 9 9 9 9 9 9 9 9 9 9 9 9 9 9
14 14 14 14 13 13 13 12 12 12 12 11 11 11 11 11 10 10 10 10 10 9 9 9 9 9 9 9 9 8 8 8 8 8 9 9 9 9 9 9 9 9 9
14 13 13 13 13 12 12 12 11 11 11 11 11 10 10 10 10 10 10 9 9 9 9 9 8 8 8 8 8 8 8 8 8 8 8 8 8 8 8 8 8 8 8
Wind_Speed
2 2 3 4 4 4 4 4 5 4 4 3 3 2 2 2 2 3 4 5 5 5 4 3 3 3 3 3 3 2 3 3 3 3 4 4 4 5 4 4 4 4 5
2 2 3 3 4 4 4 4 4 4 3 2 2 2 2 1 1 2 4 5 5 5 4 3 3 3 3 4 3 2 2 2 3 2 3 4 5 4 5 4 4 4 4
5 4 3 3 3 4 5 5 4 4 3 3 3 3 3 3 3 3 3 4 5 5 4 3 2 2 2 2 2 2 2 1 3 2 3 2 1 3 4 4 4 4 4
4 4 4 3 3 3 3 4 4 4 4 4 4 4 2 1 1 1 2 4 5 5 5 4 3 2 2 2 2 1 1 1 1 2 2 1 2 1 2 4 4 4 4
5 5 5 5 3 3 4 4 4 3 3 3 4 4 3 1 0 1 3 4 4 5 5 4 3 3 2 2 2 2 1 1 1 0 0 1 2 1 1 2 4 4 3
4 4 4 4 3 3 4 4 4 3 3 3 4 4 3 2 1 2 3 3 3 3 5 4 3 2 2 2 2 2 1 1 1 1 1 1 1 1 1 1 2 3 3
5 4 5 5 4 4 4 4 4 2 2 3 3 3 3 2 1 0 1 2 2 3 4 3 3 2 2 2 2 2 2 1 1 0 0 1 1 2 2 1 1 1 2
4 4 5 5 4 4 4 4 4 3 2 2 2 2 2 2 1 1 1 1 2 2 3 3 2 3 3 2 2 2 2 1 1 1 1 0 1 1 2 2 1 1 2
4 4 4 4 4 4 4 5 5 3 2 2 2 2 1 1 1 1 1 1 2 2 2 2 2 3 2 2 2 2 2 2 1 1 1 1 1 1 2 2 2 2 1
4 4 4 3 3 3 3 3 4 3 2 2 2 2 1 2 1 1 1 2 2 2 2 2 2 3 3 2 2 1 2 2 2 1 1 2 1 1 1 1 2 2 2
5 4 3 3 3 3 3 3 2 2 2 1 1 1 0 0 0 0 2 2 2 2 2 2 2 3 3 2 2 2 2 2 3 3 2 2 2 1 1 1 1 1 2
5 4 4 4 4 3 2 2 2 2 1 1 1 1 1 1 1 1 2 2 2 2 2 1 2 2 3 2 2 2 2 2 2 3 2 3 2 2 2 1 1 2 2
5 4 4 3 3 2 2 2 2 1 1 2 2 2 1 1 1 2 2 2 2 2 2 2 2 2 2 2 2 2 2 2 2 2 2 3 2 3 2 2 2 2 2
5 5 3 2 2 2 2 2 1 1 2 3 3 2 1 1 1 2 2 2 2 2 2 2 2 2 2 2 2 2 2 2 3 3 3 3 2 3 3 2 3 2 2
5 5 4 3 2 2 2 2 2 2 3 3 2 1 1 1 1 2 2 2 2 2 2 2 3 3 2 2 2 2 2 2 3 3 3 4 4 4 3 2 2 2 2
6 5 4 4 3 3 2 2 2 2 3 3 1 1 1 2 2 1 2 2 2 2 2 2 3 4 4 5 4 3 2 2 3 4 4 4 4 5 6 5 4 3 3
6 6 5 4 4 3 3 3 2 3 3 2 1 1 1 1 1 1 2 2 2 2 2 3 3 4 5 7 6 5 2 2 3 4 4 4 4 4 4 5 6 5 6
6 6 5 4 3 3 3 3 4 4 3 2 1 1 1 1 1 1 1 1 1 1 2 3 3 4 5 7 7 7 3 3 4 4 4 4 6 5 4 4 4 5 5
6 5 5 4 4 4 4 5 4 4 3 2 1 1 0 0 1 1 2 1 1 2 2 3 3 4 6 8 7 6 2 3 5 5 4 4 5 9 7 4 5 6 6
5 5 5 5 5 3 5 6 4 3 1 0 1 1 0 0 1 2 2 1 1 2 2 3 3 4 5 8 8 7 2 3 4 5 5 6 7 9 8 4 5 7 8
6 6 7 6 4 4 5 5 3 1 1 0 1 1 1 0 0 1 1 1 2 2 3 3 4 4 5 8 9 7 3 3 4 5 5 5 10 10 10 7 6 9 8
6 6 6 5 3 4 5 5 2 1 0 1 2 2 1 1 1 1 1 2 1 2 3 4 5 4 5 6 8 9 7 5 4 5 5 6 11 11 10 8 8 10 8
6 5 6 5 3 2 4 4 1 1 1 2 1 2 2 2 1 1 1 2 2 2 3 3 4 5 5 6 9 10 9 9 5 5 9 11 12 10 8 9 10 8 4
5 5 6 5 2 1 2 2 1 1 2 2 1 2 2 3 3 1 1 1 2 2 3 4 5 5 5 5 5 5 6 7 6 6 8 10 10 7 7 7 6 4 5
4 5 5 4 3 2 1 1 1 2 2 1 1 2 2 2 3 3 2 3 3 4 4 4 4 5 6 8 10 7 6 5 6 6 4 4 4 4 4 5 5 5 4
4 4 4 3 2 2 1 0 1 2 2 1 1 1 2 2 2 3 4 5 5 8 8 8 7 6 9 12 12 12 12 11 9 5 4 5 5 6 6 6 6 5 5
Wind_Direction
195 151 146 133 129 127 130 134 126 122 113 96 92 84 59 15 14 11 14 21 22 25 34 24 16 22 29 12 16 33 32 19 6 38 16 4 17 31 23 13 16 11 11
141 133 125 128 140 149 149 144 146 147 140 124 122 121 121 65 356 343 5 17 16 15 21 25 10 12 23 19 21 37 39 17 26 63 58 12 358 360 8 10 18 6 10
180 168 153 152 148 165 169 161 158 147 133 115 99 77 55 34 17 3 352 351 0 7 16 19 20 16 28 15 4 26 71 39 18 48 103 100 316 324 340 358 9 6 9
174 170 168 164 175 188 163 147 142 133 128 124 118 115 109 101 292 304 321 339 2 7 13 15 17 17 18 8 351 32 67 100 35 20 51 126 164 126 339 336 346 358 5
176 179 178 175 170 155 139 135 125 123 126 127 129 119 109 126 346 351 359 359 358 8 10 12 15 12 9 2 3 15 42 103 141 133 103 84 69 110 149 311 328 345 348
172 169 159 146 141 126 123 126 125 128 132 130 128 130 133 121 63 17 3 351 346 349 358 1 5 3 5 358 356 4 31 54 97 123 152 157 162 187 163 228 306 324 320
158 156 153 150 148 143 140 136 136 140 142 139 143 149 151 145 156 238 312 331 338 337 336 348 347 349 346 353 10 26 18 16 45 34 219 197 204 184 166 170 258 316 316
159 158 161 162 159 153 147 145 154 164 157 155 160 154 151 155 202 227 230 265 276 287 313 335 344 345 352 8 25 26 6 18 11 349 310 262 253 194 182 179 170 342 335
154 151 150 154 156 156 161 166 165 167 169 171 154 160 173 180 222 257 268 283 287 299 325 344 351 346 356 4 25 25 356 2 352 334 332 315 288 234 212 195 180 170 284
139 141 144 147 149 150 147 143 156 168 170 167 176 175 203 216 222 230 288 301 308 323 342 351 352 350 355 3 28 14 360 19 352 340 348 332 309 294 235 199 199 190 187
150 148 143 130 119 112 121 131 140 132 129 151 157 137 193 254 206 290 291 296 312 320 331 336 350 356 358 0 21 3 10 13 349 350 345 321 312 311 296 225 196 204 186
143 138 127 111 103 109 116 130 135 135 151 144 118 108 78 59 38 346 323 319 324 324 330 350 359 352 353 357 6 348 355 358 339 330 335 320 324 315 296 260 237 227 209
127 118 112 115 122 127 127 125 129 148 131 112 100 75 60 50 0 339 339 347 350 347 356 15 1 344 342 342 334 332 333 325 312 309 308 305 321 313 301 277 261 251 230
139 133 129 128 129 129 130 127 114 130 116 103 97 78 31 340 320 339 355 359 8 6 357 356 341 330 328 329 326 335 334 324 322 318 308 297 285 277 286 287 269 251 237
144 148 150 148 137 125 119 115 105 104 107 102 91 57 12 22 29 20 4 3 8 4 355 2 349 337 328 324 323 316 323 322 323 326 321 307 301 294 283 281 271 245 240
160 158 153 147 148 152 147 132 121 121 113 106 94 38 43 37 29 15 19 20 6 358 4 353 343 338 332 335 331 319 310 307 308 310 313 312 314 317 318 304 280 244 235
164 161 161 163 164 166 157 151 149 122 109 102 72 45 45 27 354 12 40 16 351 358 351 337 336 322 315 332 335 328 313 295 290 291 301 310 314 316 308 315 318 298 269
158 157 154 147 140 130 124 116 107 105 101 81 45 24 33 349 348 24 2 332 332 330 318 319 318 317 321 333 335 334 320 295 288 282 278 283 295 298 298 300 307 300 291
156 153 151 141 124 114 116 106 93 89 85 65 3 325 303 314 342 329 306 300 312 313 302 306 314 315 316 330 333 340 320 301 295 288 284 281 284 296 300 292 291 298 296
137 134 127 114 112 115 115 104 98 87 80 295 288 305 327 141 292 287 290 291 291 293 304 312 308 303 305 323 332 336 321 307 302 300 295 292 290 296 299 278 268 281 285
127 128 122 121 129 131 118 108 102 117 255 296 22 9 347 332 311 326 319 311 315 327 325 316 310 304 303 318 327 330 320 293 296 298 298 296 301 298 293 285 264 266 276
120 122 119 113 113 129 125 119 143 236 22 68 47 12 347 338 5 16 351 345 346 343 327 322 320 313 309 312 318 323 318 310 287 288 289 291 300 300 297 289 277 278 283
129 125 123 113 99 119 130 137 193 165 99 71 33 353 350 348 349 354 331 336 339 328 314 313 308 308 310 311 318 320 316 312 299 284 289 294 298 302 300 289 287 287 276
132 128 122 120 119 119 122 151 164 130 105 87 1 343 347 338 335 327 298 298 299 301 304 301 297 299 304 303 308 309 310 308 306 301 301 303 299 293 286 295 293 277 260
132 134 137 143 154 147 129 135 144 123 103 72 4 341 330 317 318 314 290 276 264 258 275 275 274 286 295 292 298 304 299 295 290 304 307 307 306 302 297 293 286 279 276
129 126 127 134 148 148 148 205 158 139 130 88 334 320 314 310 309 313 317 302 287 299 295 287 283 278 279 296 304 303 301 302 303 305 290 288 287 284 284 286 288 282 273
Height
1533 1535 1537 1539 1540 1542 1543 1544 1545 1545 1546 1546 1546 1546 1546 1546 1545 1545 1544 1543 1542 1540 1539 1538 1537 1536 1535 1534 1533 1533 1532 1531 1531 1530 1530 1530 1530 1531 1531 1531 1531 1531 1531
1533 1535 1537 1538 1540 1542 1543 1544 1545 1546 1546 1547 1547 1547 1546 1546 1546 1545 1545 1543 1542 1541 1540 1538 1537 1536 1535 1534 1534 1533 1533 1532 1532 1531 1531 1531 1532 1531 1531 1531 1531 1531 1531
1532 1534 1536 1538 1540 1541 1543 1544 1545 1546 1547 1547 1547 1547 1547 1547 1546 1546 1545 1544 1543 1542 1540 1539 1538 1537 1536 1535 1534 1534 1533 1533 1532 1532 1532 1532 1532 1532 1532 1532 1531 1531 1531
1532 1534 1536 1538 1539 1541 1543 1544 1546 1546 1547 1548 1548 1548 1547 1547 1547 1546 1545 1544 1543 1542 1541 1539 1538 1537 1536 1536 1535 1534 1534 1533 1533 1533 1533 1533 1532 1532 1532 1532 1532 1531 1531
1531 1533 1535 1537 1539 1541 1543 1544 1546 1546 1547 1548 1548 1548 1548 1547 1547 1546 1546 1545 1544 1543 1541 1540 1539 1538 1537 1536 1535 1535 1534 1534 1533 1533 1533 1533 1533 1532 1532 1531 1531 1531 1531
1530 1532 1535 1537 1539 1541 1542 1544 1545 1546 1547 1548 1548 1548 1548 1548 1547 1547 1546 1545 1544 1543 1542 1541 1540 1539 1538 1537 1536 1535 1535 1534 1534 1533 1533 1533 1532 1532 1532 1531 1531 1530 1531
1529 1532 1534 1536 1538 1540 1542 1544 1545 1546 1547 1548 1548 1548 1548 1548 1547 1547 1546 1545 1544 1543 1542 1541 1540 1539 1538 1537 1536 1536 1535 1534 1534 1533 1533 1532 1532 1532 1531 1531 1530 1530 1530
1529 1531 1533 1536 1538 1540 1542 1543 1545 1546 1547 1547 1548 1548 1548 1548 1547 1547 1546 1545 1545 1544 1543 1542 1540 1539 1538 1538 1537 1536 1535 1534 1534 1533 1533 1532 1532 1531 1531 1531 1530 1529 1529
1528 1531 1534 1536 1538 1540 1541 1543 1544 1545 1546 1547 1547 1548 1548 1548 1547 1547 1546 1545 1545 1544 1543 1542 1541 1540 1539 1538 1537 1536 1535 1535 1534 1533 1533 1532 1532 1531 1531 1530 1530 1530 1529
1528 1531 1534 1536 1538 1540 1541 1543 1544 1545 1546 1546 1547 1547 1547 1547 1547 1546 1546 1545 1544 1544 1543 1542 1541 1540 1539 1538 1537 1536 1535 1535 1534 1533 1533 1532 1531 1531 1530 1530 1529 1529 1529
1528 1531 1533 1536 1538 1539 1541 1542 1543 1544 1545 1546 1546 1546 1547 1547 1546 1546 1545 1545 1544 1543 1542 1542 1541 1540 1539 1538 1537 1536 1535 1534 1533 1533 1532 1531 1531 1530 1529 1529 1528 1528 1527
1529 1531 1534 1536 1537 1539 1541 1542 1543 1543 1544 1545 1545 1546 1546 1546 1545 1545 1544 1544 1543 1543 1542 1541 1540 1539 1538 1537 1536 1535 1534 1533 1533 1532 1531 1530 1529 1529 1528 1527 1527 1526 1526
1529 1532 1534 1535 1537 1539 1540 1541 1542 1543 1544 1544 1544 1545 1545 1544 1544 1544 1543 1543 1542 1542 1541 1540 1539 1538 1537 1536 1535 1535 1534 1533 1532 1531 1530 1529 1528 1527 1526 1525 1525 1524 1524
1529 1531 1533 1535 1537 1539 1540 1541 1542 1542 1543 1543 1543 1543 1543 1543 1543 1543 1542 1542 1541 1540 1539 1539 1538 1537 1536 1535 1534 1534 1532 1531 1530 1529 1528 1527 1526 1525 1524 1523 1523 1522 1521
1528 1531 1533 1535 1536 1538 1539 1540 1541 1542 1542 1542 1542 1542 1542 1542 1542 1542 1541 1540 1540 1539 1538 1537 1536 1536 1535 1534 1533 1532 1531 1530 1529 1527 1526 1525 1524 1523 1522 1521 1520 1519 1518
1527 1530 1532 1534 1536 1537 1538 1539 1540 1541 1541 1541 1541 1541 1541 1541 1540 1540 1540 1539 1538 1537 1537 1536 1535 1534 1533 1532 1531 1530 1529 1528 1526 1525 1524 1523 1522 1521 1520 1519 1518 1517 1516
1526 1528 1531 1533 1535 1536 1538 1538 1539 1540 1540 1541 1540 1540 1540 1540 1539 1539 1538 1537 1537 1536 1535 1534 1533 1532 1531 1530 1529 1528 1527 1525 1524 1523 1521 1520 1519 1518 1517 1516 1515 1514 1513
1525 1527 1530 1532 1534 1536 1537 1538 1538 1539 1539 1539 1539 1539 1539 1538 1538 1537 1536 1536 1535 1534 1533 1532 1531 1530 1529 1527 1526 1525 1524 1522 1521 1520 1518 1517 1516 1515 1513 1512 1511 1510 1509
1524 1527 1529 1532 1533 1535 1536 1537 1537 1538 1538 1538 1538 1537 1537 1536 1536 1535 1534 1534 1533 1532 1531 1530 1528 1527 1526 1525 1523 1522 1520 1519 1518 1517 1515 1514 1512 1511 1510 1508 1506 1505 1504
1524 1526 1529 1531 1533 1534 1535 1536 1536 1536 1536 1536 1536 1536 1535 1534 1534 1533 1532 1531 1530 1529 1528 1527 1526 1524 1523 1522 1520 1518 1517 1515 1514 1513 1512 1510 1509 1507 1505 1504 1502 1500 1499
1523 1526 1528 1530 1532 1533 1534 1534 1535 1535 1535 1535 1534 1534 1533 1532 1532 1531 1530 1529 1528 1527 1526 1524 1523 1521 1520 1518 1517 1515 1513 1511 1510 1508 1507 1506 1504 1503 1501 1499 1497 1496 1494
1522 1525 1527 1529 1530 1532 1533 1533 1533 1533 1533 1533 1532 1532 1531 1530 1529 1528 1527 1526 1525 1524 1522 1521 1520 1518 1517 1515 1513 1512 1510 1508 1506 1504 1502 1501 1500 1498 1496 1494 1492 1491 1489
1522 1524 1526 1528 1529 1530 1531 1531 1532 1532 1531 1531 1530 1530 1529 1528 1527 1526 1525 1524 1522 1521 1519 1518 1516 1514 1513 1512 1510 1508 1506 1504 1502 1500 1498 1496 1494 1492 1491 1489 1487 1485 1483
1521 1523 1525 1526 1528 1529 1529 1530 1530 1530 1529 1529 1528 1527 1526 1525 1524 1523 1522 1521 1519 1518 1516 1514 1512 1511 1509 1507 1505 1503 1501 1499 1497 1495 1492 1491 1489 1487 1485 1483 1481 1480 1478
1520 1522 1523 1525 1526 1527 1528 1528 1528 1528 1527 1527 1526 1525 1524 1523 1522 1520 1519 1517 1516 1515 1513 1511 1509 1507 1504 1503 1501 1499 1496 1494 1492 1489 1487 1484 1482 1480 1478 1477 1475 1473 1472
1519 1520 1522 1523 1524 1525 1526 1526 1526 1526 1525 1524 1523 1522 1521 1520 1519 1517 1516 1514 1513 1511 1509 1507 1505 1503 1501 1498 1496 1494 1492 1489 1487 1484 1481 1479 1476 1474 1472 1470 1468 1467 1465